Wind_Speed
15 15 14 14 14 14 14 14 14 13 13 12 10 10 8 7 6 5 3 2 2 2 3 5 6 6 6 6 6 7 7 8 9 9 10 11 12 12 12 12 13 14 14
13 13 13 13 14 14 13 13 13 13 13 12 11 10 9 8 7 6 4 4 3 2 2 2 4 6 7 7 7 8 8 9 9 10 11 12 12 12 12 13 14 14 15
11 11 11 12 12 13 13 13 13 12 12 12 12 11 10 9 8 7 6 5 3 2 2 3 3 4 5 7 8 9 9 10 11 11 12 12 12 13 13 14 14 15 16
9 10 10 10 11 12 13 13 13 12 12 12 12 11 10 9 8 8 7 7 5 3 3 3 3 4 4 6 8 9 10 11 12 13 14 14 15 15 15 15 15 16 16
8 8 9 10 10 11 11 12 13 12 12 12 11 11 11 10 9 8 7 6 6 5 5 4 5 5 6 6 7 8 10 12 13 14 15 15 16 16 16 16 17 18 18
7 7 7 9 9 10 10 10 11 12 12 12 11 11 11 10 9 8 8 6 7 6 6 6 6 6 7 7 8 9 10 11 12 13 15 15 15 16 17 17 18 19 20
7 7 7 8 9 9 9 9 10 10 11 11 11 11 10 10 10 9 8 7 7 8 8 8 7 7 8 9 9 10 10 11 12 13 14 15 16 17 17 18 19 20 20
7 7 8 8 8 8 8 9 10 10 10 10 11 11 10 10 9 10 9 9 8 9 9 10 9 9 10 10 10 10 10 11 12 13 14 15 16 17 18 19 20 20 20
9 8 8 8 8 8 8 9 9 9 10 10 11 11 11 10 10 10 10 10 10 10 11 11 11 11 11 12 11 11 11 12 12 13 14 15 17 18 19 20 21 21 21
11 10 9 9 8 8 9 10 10 10 10 10 11 11 11 11 10 10 11 12 11 11 11 12 12 12 12 12 13 12 12 13 14 14 15 17 17 18 19 20 21 22 22
12 12 11 9 8 9 9 10 11 11 10 10 11 11 11 11 12 12 11 12 12 11 12 12 13 13 12 13 14 14 14 15 15 16 18 18 18 19 19 20 21 23 23
14 13 13 11 11 11 11 12 13 13 12 11 11 13 13 13 14 14 13 13 13 12 13 13 13 13 13 13 15 15 16 16 16 17 18 19 19 20 21 21 21 22 23
16 15 14 14 14 13 14 15 15 14 15 13 13 14 15 15 15 16 16 16 16 14 13 14 14 13 14 15 16 16 17 17 17 18 18 19 20 20 21 22 22 23 24
20 19 17 16 16 15 17 18 18 18 17 14 14 15 16 17 17 18 18 18 17 16 15 15 15 15 15 17 17 17 18 18 18 19 20 20 21 21 22 22 23 24 24
21 21 20 18 17 17 18 20 20 20 18 16 16 17 18 19 19 20 20 20 20 18 16 16 16 17 17 18 19 19 19 20 20 21 22 22 22 21 22 22 23 24 24
23 22 21 21 20 20 20 21 21 21 20 19 18 18 19 21 21 22 22 21 20 19 18 18 18 18 19 20 21 22 22 22 23 24 24 24 23 23 23 23 23 24 24
27 25 25 24 23 23 22 22 22 22 23 22 21 20 21 22 23 23 22 22 21 21 20 20 20 20 21 22 23 24 24 24 25 25 25 25 25 25 25 25 25 25 25
30 29 28 27 27 27 26 25 25 25 25 25 25 24 24 25 25 25 24 24 24 23 23 23 22 23 23 24 25 25 26 26 26 27 27 27 27 27 27 26 26 27 27
32 31 31 30 29 30 30 29 29 28 28 28 28 28 28 27 27 26 26 26 27 26 25 25 25 25 25 26 27 27 27 27 27 28 28 28 28 28 27 26 27 27 27
36 35 34 33 33 32 32 32 31 31 31 30 30 31 30 29 28 28 28 29 29 28 27 27 27 27 28 28 29 29 28 28 29 29 30 29 29 29 28 27 27 28 28
38 37 36 36 36 36 36 35 34 33 33 34 35 33 32 31 30 30 29 30 30 30 30 29 29 30 30 31 31 30 30 30 30 30 31 31 30 30 30 29 29 29 29
39 38 39 39 39 39 37 36 36 36 37 38 37 34 34 34 33 31 31 32 32 31 31 32 31 31 32 32 32 31 31 32 32 32 31 31 31 31 31 30 30 31 31
40 40 41 41 42 41 39 37 37 38 39 40 39 39 37 35 34 33 33 33 34 33 34 34 33 33 34 34 33 33 33 33 33 33 33 33 33 33 32 32 32 32 32
43 43 43 44 45 44 42 40 40 39 40 41 41 40 38 36 36 35 34 35 35 35 36 35 34 35 34 34 34 33 33 34 34 34 34 34 34 34 34 34 34 34 34
45 45 46 46 46 44 43 43 43 43 42 41 40 39 39 36 35 36 37 35 35 35 36 35 34 35 35 35 35 35 35 35 35 35 36 36 35 36 36 36 36 35 35
47 46 46 47 47 45 43 43 44 43 42 41 40 38 37 36 36 37 37 37 35 35 35 35 35 36 36 36 36 36 37 37 36 36 37 37 37 37 37 37 37 37 37
Wind_Direction
28 31 32 32 33 33 34 35 35 35 36 35 34 32 30 27 19 8 349 343 310 278 253 249 246 248 252 256 263 267 261 260 259 263 266 268 269 270 272 270 270 271 269
22 25 27 27 28 29 29 30 30 31 31 31 31 30 30 26 19 14 2 350 339 343 321 271 257 254 255 259 264 265 263 267 267 267 266 268 269 271 276 275 273 271 269
12 15 20 22 24 25 25 25 27 29 27 26 28 30 29 27 23 19 17 16 8 17 1 328 299 273 265 264 266 268 270 270 269 268 267 268 272 272 275 277 276 274 272
358 2 11 17 19 20 21 22 23 25 25 25 26 28 29 29 28 27 25 27 29 21 6 341 322 307 295 283 274 271 272 271 270 270 271 271 271 272 275 275 276 277 274
344 352 360 6 11 14 15 16 17 20 22 24 24 24 26 27 26 24 20 22 24 17 2 343 335 319 308 301 294 287 280 274 271 272 273 272 272 273 275 276 276 277 276
334 342 347 353 358 3 5 7 10 13 16 18 19 19 22 22 21 20 18 16 7 360 352 346 338 331 322 311 304 301 294 284 278 276 275 274 274 276 276 276 277 279 278
324 335 337 336 340 349 351 354 1 4 7 9 13 17 17 16 17 13 9 4 357 350 341 335 332 330 330 322 313 309 305 297 288 282 279 278 277 277 278 277 277 279 279
308 320 327 327 332 335 337 341 346 351 357 359 2 7 8 7 7 6 1 353 345 340 339 337 333 332 330 326 319 315 310 303 296 290 286 284 283 281 282 280 280 280 280
295 310 323 323 325 324 328 334 336 338 345 347 349 353 357 356 355 352 352 349 342 337 333 331 330 326 325 323 320 315 308 305 301 298 294 290 288 287 286 284 281 281 280
285 293 302 309 311 315 321 326 327 329 334 338 340 341 342 342 342 341 341 342 338 332 330 327 324 321 319 320 318 314 310 306 302 300 300 296 295 292 290 285 281 280 280
282 288 293 298 301 308 313 319 320 321 323 326 329 331 329 329 330 330 333 336 335 328 327 325 320 318 316 316 317 312 311 309 306 302 300 299 297 294 292 291 287 282 280
274 282 285 289 293 300 303 307 310 314 318 319 321 324 324 321 324 323 321 325 331 329 326 324 317 314 315 316 317 317 313 310 308 307 303 299 297 296 293 292 291 288 285
265 271 276 281 288 295 299 301 301 304 310 308 314 316 317 316 316 319 319 318 321 320 321 325 326 319 319 318 316 316 315 312 310 309 306 303 301 299 296 293 292 290 288
263 268 273 278 283 290 297 301 300 300 306 304 306 308 308 311 310 314 317 317 321 321 321 323 323 321 323 325 322 320 317 314 312 311 308 303 301 300 298 295 293 291 290
260 263 268 273 278 285 292 297 297 299 299 300 302 304 303 306 309 311 308 311 314 316 317 319 321 320 320 321 322 321 320 318 317 314 313 308 304 303 302 302 299 295 292
256 260 264 267 274 281 286 291 294 295 296 297 299 300 301 302 305 305 305 303 306 308 310 311 313 315 316 316 317 319 318 316 314 312 312 311 307 305 302 302 301 298 294
257 259 262 266 273 278 282 286 289 291 294 292 293 294 296 299 302 304 304 301 301 302 304 305 306 308 311 312 314 315 316 314 314 313 310 308 306 304 302 300 299 297 295
256 259 260 265 271 275 277 280 284 288 290 290 290 289 292 295 296 298 299 298 298 299 300 301 301 303 306 308 309 311 312 313 313 313 312 309 306 305 303 300 299 297 295
255 258 260 262 267 272 275 278 281 284 287 287 286 287 288 291 293 292 293 293 294 295 296 297 300 301 302 304 307 308 309 310 312 311 311 310 309 306 303 301 299 298 297
254 256 259 261 264 269 271 274 278 282 283 283 284 283 284 287 289 291 291 291 292 292 292 294 296 298 300 301 303 305 307 308 309 309 308 308 307 307 304 301 300 299 299
254 256 258 260 264 267 268 271 276 280 282 282 284 282 283 283 284 287 289 289 290 290 291 291 293 295 297 299 300 300 302 304 305 306 305 305 304 304 303 300 299 299 298
254 255 257 260 262 265 267 269 275 277 278 281 281 280 281 280 280 283 287 288 289 291 291 291 292 294 295 296 296 297 299 301 302 303 303 302 302 301 301 300 298 297 297
253 255 258 258 260 261 263 266 271 274 276 279 280 281 280 280 281 282 284 286 288 289 291 291 290 292 293 294 295 296 297 299 300 301 301 300 300 300 299 299 297 296 295
254 254 256 258 259 260 262 265 268 270 273 275 277 279 281 282 281 281 282 284 287 288 290 290 289 290 292 294 294 295 296 298 299 299 299 299 298 298 298 298 297 296 295
255 255 256 257 256 260 263 266 268 271 273 275 279 280 282 283 283 282 283 284 287 289 290 290 291 291 292 293 293 293 293 295 297 297 298 298 296 296 296 297 296 295 294
256 257 259 259 260 261 264 265 269 270 272 276 281 281 281 282 284 286 285 286 287 287 287 289 290 290 291 291 291 290 291 292 294 295 295 295 295 294 294 294 294 293 292
Height
5918 5916 5914 5912 5910 5908 5906 5904 5902 5900 5898 5896 5895 5893 5892 5890 5889 5888 5887 5887 5887 5887 5886 5887 5887 5888 5888 5889 5890 5890 5890 5891 5891 5892 5892 5892 5892 5892 5892 5892 5892 5893 5893
5919 5918 5916 5914 5911 5909 5907 5905 5903 5901 5899 5897 5896 5894 5892 5891 5890 5888 5888 5887 5887 5887 5886 5886 5887 5887 5887 5888 5888 5888 5889 5889 5889 5890 5890 5890 5891 5890 5890 5890 5890 5890 5889
5920 5919 5917 5915 5913 5911 5909 5907 5904 5902 5901 5899 5897 5895 5893 5892 5891 5889 5888 5887 5887 5887 5887 5887 5886 5886 5886 5886 5887 5887 5887 5887 5887 5887 5887 5887 5887 5887 5888 5887 5887 5886 5886
5920 5919 5917 5915 5914 5912 5910 5908 5906 5904 5902 5900 5898 5896 5895 5893 5892 5890 5889 5888 5887 5887 5887 5887 5886 5886 5885 5885 5885 5885 5885 5885 5885 5884 5884 5884 5884 5884 5884 5884 5884 5883 5882
5920 5919 5917 5916 5914 5913 5911 5909 5907 5905 5903 5901 5899 5898 5896 5894 5893 5892 5890 5889 5888 5888 5887 5886 5886 5885 5884 5884 5883 5883 5882 5882 5882 5881 5881 5881 5880 5880 5880 5880 5880 5879 5878
5920 5918 5917 5916 5914 5913 5911 5910 5908 5906 5904 5902 5900 5898 5897 5895 5894 5893 5891 5890 5889 5888 5887 5886 5885 5884 5883 5883 5882 5881 5880 5879 5878 5878 5877 5877 5877 5876 5876 5876 5875 5875 5874
5919 5918 5916 5915 5914 5913 5911 5910 5908 5907 5904 5902 5901 5899 5897 5896 5895 5893 5892 5890 5889 5888 5887 5885 5884 5883 5882 5881 5880 5878 5877 5876 5876 5875 5874 5874 5873 5873 5872 5872 5871 5870 5869
5918 5917 5915 5914 5913 5912 5911 5910 5908 5907 5905 5903 5901 5899 5898 5896 5895 5893 5892 5890 5889 5887 5886 5885 5883 5882 5880 5879 5877 5876 5875 5874 5873 5872 5871 5870 5869 5868 5868 5867 5866 5866 5865
5916 5915 5914 5913 5912 5910 5909 5909 5907 5906 5904 5903 5901 5900 5898 5896 5894 5893 5891 5890 5888 5887 5885 5884 5882 5881 5879 5877 5875 5874 5872 5871 5870 5869 5868 5867 5865 5864 5863 5862 5861 5861 5861
5913 5913 5912 5911 5910 5909 5908 5908 5907 5905 5904 5902 5900 5899 5897 5895 5893 5892 5890 5888 5887 5885 5884 5882 5880 5879 5877 5876 5874 5872 5870 5869 5867 5866 5864 5863 5861 5860 5859 5857 5856 5856 5855
5911 5910 5910 5909 5908 5907 5907 5906 5905 5904 5902 5900 5899 5897 5895 5894 5892 5890 5888 5887 5885 5883 5881 5880 5878 5877 5875 5873 5871 5869 5867 5865 5864 5862 5861 5859 5857 5856 5854 5852 5851 5850 5849
5908 5907 5907 5906 5906 5905 5904 5904 5903 5901 5900 5898 5897 5896 5894 5892 5890 5888 5886 5884 5882 5881 5879 5877 5875 5873 5872 5870 5868 5866 5864 5862 5860 5858 5856 5854 5853 5851 5849 5848 5846 5845 5843
5904 5904 5904 5903 5903 5902 5902 5901 5900 5898 5897 5896 5895 5893 5891 5889 5887 5885 5883 5881 5879 5877 5876 5874 5872 5870 5869 5867 5865 5863 5861 5858 5856 5854 5852 5850 5848 5846 5844 5843 5841 5839 5838
5899 5899 5900 5899 5899 5899 5898 5897 5895 5893 5893 5892 5891 5889 5888 5886 5884 5883 5881 5878 5876 5874 5873 5871 5869 5867 5866 5864 5862 5860 5857 5855 5852 5850 5848 5846 5844 5841 5839 5837 5835 5833 5832
5893 5894 5894 5895 5895 5895 5894 5893 5891 5890 5889 5888 5887 5885 5883 5882 5881 5879 5877 5875 5874 5872 5870 5868 5866 5864 5862 5860 5858 5856 5854 5851 5848 5846 5843 5841 5838 5836 5834 5832 5829 5827 5825
5887 5888 5889 5889 5889 5889 5889 5888 5887 5886 5885 5884 5882 5880 5879 5878 5877 5875 5873 5872 5870 5867 5866 5864 5862 5860 5858 5856 5854 5852 5849 5847 5844 5841 5838 5836 5833 5831 5828 5826 5824 5822 5819
5880 5881 5882 5883 5883 5883 5883 5882 5882 5880 5879 5878 5877 5876 5875 5873 5872 5869 5868 5866 5864 5863 5861 5859 5858 5856 5853 5851 5849 5847 5844 5841 5838 5836 5833 5830 5827 5824 5822 5820 5817 5815 5813
5873 5874 5875 5875 5876 5876 5876 5875 5874 5874 5872 5871 5870 5869 5868 5867 5865 5863 5862 5860 5858 5857 5855 5854 5852 5850 5848 5846 5843 5841 5838 5835 5833 5830 5827 5824 5821 5818 5815 5813 5811 5808 5806
5864 5865 5867 5867 5868 5868 5868 5868 5867 5866 5866 5865 5863 5862 5861 5859 5857 5856 5855 5853 5852 5850 5848 5847 5845 5844 5842 5840 5837 5835 5832 5829 5826 5824 5821 5818 5814 5812 5808 5806 5803 5801 5798
5854 5855 5857 5858 5858 5859 5859 5859 5859 5858 5857 5856 5855 5854 5852 5851 5850 5848 5847 5846 5844 5842 5841 5839 5838 5837 5835 5833 5830 5828 5825 5822 5820 5817 5814 5811 5808 5804 5802 5799 5796 5794 5791
5844 5845 5847 5848 5849 5849 5849 5849 5849 5848 5848 5847 5846 5844 5843 5843 5841 5839 5838 5837 5836 5834 5833 5831 5830 5829 5827 5825 5822 5820 5818 5815 5812 5809 5806 5803 5800 5797 5794 5791 5789 5786 5784
5833 5835 5836 5837 5838 5838 5838 5838 5839 5839 5839 5837 5834 5834 5834 5833 5831 5830 5829 5829 5827 5825 5824 5823 5822 5820 5818 5816 5813 5811 5809 5806 5804 5801 5798 5795 5793 5790 5787 5784 5781 5778 5776
5822 5824 5825 5827 5827 5827 5827 5827 5828 5829 5828 5827 5826 5825 5824 5823 5822 5821 5821 5820 5818 5816 5815 5813 5812 5810 5808 5806 5804 5802 5799 5797 5795 5792 5789 5787 5784 5781 5778 5775 5773 5770 5767
5809 5811 5813 5814 5815 5816 5816 5816 5817 5817 5817 5816 5815 5814 5814 5813 5812 5811 5811 5809 5808 5806 5805 5803 5802 5800 5798 5796 5794 5792 5790 5787 5785 5782 5780 5777 5775 5772 5769 5766 5763 5761 5758
5795 5797 5799 5801 5802 5802 5804 5805 5805 5805 5805 5805 5803 5803 5803 5803 5802 5801 5800 5799 5798 5796 5795 5793 5791 5790 5788 5786 5784 5782 5780 5778 5775 5773 5770 5767 5765 5762 5759 5756 5753 5751 5748
5782 5783 5785 5787 5788 5789 5790 5793 5794 5794 5794 5794 5793 5793 5792 5792 5792 5791 5790 5788 5787 5785 5784 5783 5781 5779 5777 5775 5774 5772 5769 5767 5765 5763 5760 5757 5754 5751 5749 5746 5743 5740 5737